Location: Grange Verzio
(44.5000°N, 6.9833°E)
Time: 17:33:09
(UTC+00:00)

Cosmos 2219 Rocket - Pass Details

Date: 01 October 2023
Orbit: 826 x 848 km, 71.0° (Epoch: 08 December)

Event Time Altitude Azimuth Distance (km) Brightness Sun altitude
Rises 03:39:39 0° 329° (NNW) 3,398 5.2 -20.2°
Reaches altitude 10° 03:42:10 10° 324° (NW) 2,463 4.4 -19.7°
Maximum altitude 03:47:32 46° 252° (WSW) 1,115 2.4 -18.8°
Drops below altitude 10° 03:52:55 10° 180° (S) 2,459 4.5 -17.9°
Sets 03:55:26 0° 175° (S) 3,392 5.3 -17.5°
